Providence, RI

8:38 AM EDT on June 24, 2017 (GMT -0400)
Green State

Weather History for KPVD - March, 2014

Change the Weather History Date:

Tuesday, March 25, 2014

  Actual Average Record
Temperature  
Mean Temperature 27 °F 42 °F  
Max Temperature 37 °F 51 °F 73 °F (1964)
Min Temperature 17 °F 33 °F 13 °F (1956)
Degree Days  
Heating Degree Days 38 23  
Month to date heating degree days 798 676  
Since 1 July heating degree days 5070 4738  
Cooling Degree Days 0 0  
Month to date cooling degree days 0 0  
Year to date cooling degree days 0 0  
Moisture  
Dew Point 9 °F    
Average Humidity 45    
Maximum Humidity 61    
Minimum Humidity 29    
Precipitation  
Precipitation 0.00 in 0.17 in 1.68 in (1969)
Month to date precipitation 1.33 3.98  
Year to date precipitation 9.73 11.13  
Snow  
Snow 0.00 in 0.10 in 2.00 in (1960)
Month to date snowfall 1.2 4.9  
Since 1 July snowfall 43.3 32.6  
Snow Depth 0.00 in    
Sea Level Pressure  
Sea Level Pressure 30.08 in    
Wind  
Wind Speed 7 mph (SSW)    
Max Wind Speed 22 mph    
Max Gust Speed 28 mph    
Visibility 10 miles    
Events      
T = Trace of Precipitation, MM = Missing Value Source: NWS Daily Summary

Daily Weather History Graph

Daily Weather History Graph

Search for Another Location

Airport or City:

Trip Planner

Search our weather history database for the weather conditions in past years. The results will help you decide how hot, cold, wet, or windy it might be!

Date:

Astronomy

Mar. 25, 2014 Rise Set
Actual Time 6:40 AM EDT 7:03 PM EDT
Civil Twilight 6:12 AM EDT 7:31 PM EDT
Nautical Twilight 5:40 AM EDT 8:04 PM EDT
Astronomical Twilight 5:06 AM EDT 8:37 PM EDT
Moon 3:04 AM EDT (3/25) 1:26 PM EDT (3/25)
Length of Visible Light 13h 18m
Length of Day
12h 22m
Waning Crescent, 32% of the Moon is Illuminated
Mar 25
Waning Crescent
Mar 30
New
Apr 7
First Quarter
Apr 15
Full
Apr 22
Last Quarter

Hourly Weather History & Observations

Time (EDT) Temp. Windchill Dew Point Humidity Pressure Visibility Wind Dir Wind Speed Gust Speed Precip Events Conditions
12:51 AM 24.1 °F 16.0 °F 1.9 °F 38% 30.15 in 10.0 mi WNW 6.9 mph - N/A   Clear
1:51 AM 21.9 °F 15.7 °F 3.0 °F 44% 30.16 in 10.0 mi West 4.6 mph - N/A   Clear
2:51 AM 21.9 °F 17.2 °F 3.0 °F 44% 30.16 in 10.0 mi WNW 3.5 mph - N/A   Clear
3:51 AM 19.0 °F 12.3 °F 3.9 °F 52% 30.15 in 10.0 mi WSW 4.6 mph - N/A   Clear
4:51 AM 19.9 °F 13.4 °F 5.0 °F 52% 30.15 in 10.0 mi WNW 4.6 mph - N/A   Clear
5:51 AM 19.0 °F 11.1 °F 6.1 °F 57% 30.15 in 10.0 mi West 5.8 mph - N/A   Clear
6:51 AM 18.0 °F - 7.0 °F 62% 30.17 in 10.0 mi Calm Calm - N/A   Partly Cloudy
7:51 AM 21.9 °F 14.5 °F 7.0 °F 53% 30.17 in 10.0 mi West 5.8 mph - N/A   Partly Cloudy
8:51 AM 28.0 °F - 7.0 °F 41% 30.15 in 10.0 mi Calm Calm - N/A   Mostly Cloudy
9:51 AM 30.0 °F 26.5 °F 3.0 °F 32% 30.13 in 10.0 mi SSW 3.5 mph - N/A   Mostly Cloudy
10:51 AM 30.0 °F 24.1 °F 3.9 °F 33% 30.14 in 10.0 mi Variable 5.8 mph - N/A   Overcast
11:51 AM 32.0 °F 24.2 °F 5.0 °F 32% 30.12 in 10.0 mi South 9.2 mph - N/A   Overcast
12:51 PM 34.0 °F 23.4 °F 9.0 °F 35% 30.12 in 10.0 mi SSE 17.3 mph - N/A   Overcast
1:51 PM 37.0 °F 28.9 °F 9.0 °F 31% 30.10 in 10.0 mi SW 12.7 mph 18.4 mph N/A   Mostly Cloudy
2:51 PM 36.0 °F 32.1 °F 10.0 °F 34% 30.07 in 10.0 mi Variable 4.6 mph - N/A   Mostly Cloudy
3:51 PM 36.0 °F 29.0 °F 10.9 °F 36% 30.05 in 10.0 mi SW 9.2 mph 17.3 mph N/A   Overcast
4:51 PM 35.1 °F 26.9 °F 12.0 °F 39% 30.03 in 10.0 mi South 11.5 mph - N/A   Overcast
5:51 PM 33.1 °F 24.4 °F 15.1 °F 48% 30.01 in 10.0 mi SSE 11.5 mph - N/A   Overcast
6:51 PM 32.0 °F 25.6 °F 16.0 °F 52% 29.99 in 10.0 mi South 6.9 mph - N/A   Overcast
7:51 PM 32.0 °F 28.7 °F 16.0 °F 52% 29.98 in 10.0 mi SE 3.5 mph - N/A   Overcast
8:51 PM 32.0 °F 26.4 °F 16.0 °F 52% 30.00 in 10.0 mi ESE 5.8 mph - N/A   Overcast
9:51 PM 30.9 °F 27.5 °F 14.0 °F 50% 29.99 in 10.0 mi ESE 3.5 mph - N/A   Overcast
10:51 PM 30.9 °F 23.5 °F 12.0 °F 46% 29.94 in 10.0 mi NE 8.1 mph - N/A   Overcast
11:51 PM 30.0 °F 20.5 °F 12.0 °F 47% 29.89 in 10.0 mi NE 11.5 mph - N/A   Overcast